Powrót do katalogu

COSMOS 1947

GLONASS

AktywnyNawigacjaMEO
NORAD 19164·PAYLOAD·🇷🇺 Russia

Wystrzelony May 21, 1988 z Baikonur Cosmodrome

Loading…

Następne Przeloty (najbliższe 24 godziny)

TLE

ŚwieżeSource: Space-Track

Epoka: Sep 13, 2026, 09:47 UTC

1 19164U 88043B   26256.40771751 -.00000008  00000-0  00000-0 0  9996
2 19164  65.0193  70.5197 0023884 223.9145 139.8317  2.13104110293185

Śledź COSMOS 1947 w czasie rzeczywistym z AllMySat

Download on the App Store